Tracking 27428 objects as of 31-May-2023
HD Live streaming from Space Station
objects crossing your sky now

OBJECT R

Track OBJECT R now!
10-day predictions


NORAD ID: 51839
Int'l Code: 2022-019R
Perigee: 516.9 km
Apogee: 534.3 km
Inclination: 97.5 °
Period: 95.0 minutes
Semi major axis: 6896 km
RCS: Unknown
Launch date: February 27, 2022
Source: People's Republic of China (PRC)
Launch site: Wenchang Satellite Launch Center (WSC)
Your satellite tracking list
Your tracking list is empty




NASA's NSSDC Master Catalog

Two Line Element Set (TLE):
1 51839U 22019R   23151.46705253  .00007647  00000-0  40266-3 0  9999
2 51839  97.4732 224.9090 0012615 123.8306 236.4130 15.15827553 69257
Source of the keplerian elements: AFSPC